TimeCST,TemperatureF,Dew PointF,Humidity,Sea Level PressureIn,VisibilityMPH,Wind Direction,Wind SpeedMPH,Gust SpeedMPH,PrecipitationIn,Events,Conditions,WindDirDegrees,DateUTC
12:53 AM,14.0,10.9,88,30.06,8.0,North,8.1,-,N/A,,Clear,10,2012-12-23 06:53:00
1:53 AM,12.9,10.0,88,30.06,8.0,North,9.2,-,N/A,,Clear,350,2012-12-23 07:53:00
2:53 AM,10.9,9.0,92,30.07,8.0,NNW,9.2,-,N/A,,Clear,340,2012-12-23 08:53:00
3:53 AM,10.0,8.1,92,30.07,8.0,NNW,6.9,-,N/A,,Clear,340,2012-12-23 09:53:00
4:53 AM,10.0,7.0,87,30.07,8.0,NNW,10.4,-,N/A,,Clear,340,2012-12-23 10:53:00
5:53 AM,8.1,6.1,92,30.06,8.0,North,9.2,-,N/A,,Clear,10,2012-12-23 11:53:00
6:53 AM,7.0,5.0,92,30.06,8.0,North,8.1,-,N/A,,Clear,360,2012-12-23 12:53:00
7:53 AM,6.1,3.9,91,30.08,6.0,North,5.8,-,N/A,,Clear,10,2012-12-23 13:53:00
8:53 AM,7.0,3.9,87,30.07,7.0,North,5.8,-,N/A,,Clear,360,2012-12-23 14:53:00
9:53 AM,10.0,6.1,84,30.09,7.0,NNW,4.6,-,N/A,,Clear,330,2012-12-23 15:53:00
10:53 AM,12.0,7.0,80,30.11,7.0,North,6.9,-,N/A,,Clear,350,2012-12-23 16:53:00
11:53 AM,12.9,8.1,81,30.08,8.0,NNW,5.8,-,N/A,,Clear,340,2012-12-23 17:53:00
12:53 PM,15.1,10.0,80,30.06,8.0,Calm,Calm,-,N/A,,Clear,0,2012-12-23 18:53:00
1:53 PM,16.0,10.0,77,30.04,7.0,NW,5.8,-,N/A,,Clear,310,2012-12-23 19:53:00
2:53 PM,17.1,12.0,81,30.02,7.0,NNW,6.9,-,N/A,,Clear,330,2012-12-23 20:53:00
3:53 PM,18.0,12.0,78,30.03,6.0,WNW,4.6,-,N/A,,Haze,290,2012-12-23 21:53:00
4:53 PM,18.0,12.9,81,30.02,7.0,NW,3.5,-,N/A,,Clear,320,2012-12-23 22:53:00
5:53 PM,17.1,12.9,84,30.05,8.0,NW,3.5,-,N/A,,Clear,320,2012-12-23 23:53:00
6:53 PM,15.1,10.9,84,30.05,6.0,ESE,4.6,-,N/A,,Clear,120,2012-12-24 00:53:00
7:53 PM,12.9,10.0,88,30.09,6.0,North,4.6,-,N/A,,Clear,10,2012-12-24 01:53:00
8:53 PM,10.9,10.0,96,30.10,5.0,NW,5.8,-,N/A,,Clear,320,2012-12-24 02:53:00
9:53 PM,10.9,9.0,92,30.12,5.0,NW,11.5,-,N/A,,Clear,310,2012-12-24 03:53:00
10:53 PM,15.1,10.9,84,30.13,8.0,NNW,11.5,-,N/A,,Clear,340,2012-12-24 04:53:00
11:53 PM,14.0,8.1,77,30.13,10.0,North,12.7,-,N/A,,Clear,350,2012-12-24 05:53:00